EW0362 Weather Reports


time (UTC)temp
F
wind
direction
speed
knots
gust
knots
rain 1hr
in
rain 24hr
in
rain mn
in
humidity
%
barometer
mb
20260906083704 60 57 0.0 0.9 0.03 0.04 0.04 96 1013.7
20260906083203 60 57 0.0 0.0 0.03 0.04 0.04 96 1014.0
20260906082703 60 57 0.0 0.9 0.02 0.03 0.03 95 1013.9
20260906081703 60 57 0.0 0.0 0.01 0.02 0.02 95 1013.4
20260906074704 60 57 0.0 0.0 0.00 0.01 0.01 95 1013.5
20260906074204 61 57 0.0 0.0 0.00 0.01 0.01 95 1013.3
20260906073703 61 57 0.0 0.0 0.00 0.01 0.01 95 1013.2
20260906072703 61 57 0.0 0.0 0.00 0.01 0.01 95 1013.1
20260906072204 61 57 0.0 0.0 0.00 0.01 0.01 95 1013.1
20260906071203 61 57 0.0 0.0 0.01 0.01 0.01 95 1013.0
20260906070704 61 57 0.0 0.0 0.01 0.01 0.01 95 1013.0
20260906070203 61 57 0.0 0.0 0.01 0.01 0.01 95 1013.1
20260906063704 62 57 0.0 0.0 0.01 0.01 0.01 95 1012.9
20260906062703 62 57 0.0 0.0 0.01 0.01 0.01 95 1012.9
20260906062203 62 57 0.0 0.0 0.01 0.01 0.01 95 1012.8
20260906061204 62 56 0.0 0.0 0.00 0.00 0.00 96 1013.0
20260906060703 62 56 0.0 0.0 0.00 0.00 0.00 96 1013.1
20260906055204 62 56 0.0 0.0 0.00 0.00 0.00 96 1012.9
20260906054704 62 56 0.0 0.0 0.00 0.00 0.00 96 1012.9
20260906054203 63 56 0.0 0.0 0.00 0.00 0.00 96 1012.9
20260906053704 63 56 0.0 0.0 0.00 0.00 0.00 96 1012.9
20260906052703 63 56 0.0 0.0 0.00 0.00 0.00 96 1012.9
20260906052204 63 56 0.0 0.0 0.00 0.00 0.00 96 1013.0
20260906051204 63 56 0.0 0.0 0.00 0.00 0.00 95 1013.0
20260906045704 63 56 0.0 0.0 0.00 0.00 0.00 95 1013.1
20260906045204 63 56 0.0 0.0 0.00 0.00 0.00 95 1013.1
20260906044704 63 56 0.0 0.0 0.00 0.00 0.00 95 1013.1
20260906044204 63 56 0.0 0.0 0.00 0.00 0.00 95 1013.0
20260906043203 63 56 0.0 0.0 0.00 0.00 0.00 95 1013.0
20260906042205 63 56 0.0 0.0 0.00 0.00 0.00 95 1013.0
20260906041205 63 56 0.0 0.0 0.00 0.00 0.00 95 1013.0
20260906035705 63 56 0.0 0.0 0.00 0.00 0.00 95 1013.0
20260906035205 63 56 0.0 0.0 0.00 0.00 0.00 95 1013.0
20260906034705 63 56 0.0 0.0 0.00 0.00 0.00 95 1013.0
20260906033705 63 56 0.0 0.0 0.00 0.00 0.00 95 1012.9
20260906032705 63 56 0.0 0.0 0.00 0.00 0.00 95 1012.9
20260906032205 63 56 0.0 0.0 0.00 0.00 0.00 95 1012.8
20260906030705 63 56 0.0 0.0 0.00 0.00 0.00 95 1012.7
20260906025704 63 56 0.0 0.0 0.00 0.00 0.00 95 1012.8
20260906025204 63 56 0.0 0.0 0.00 0.00 0.00 95 1012.7
20260906024705 63 56 0.0 0.0 0.00 0.00 0.00 95 1012.7
20260906024204 63 56 0.0 0.0 0.00 0.00 0.00 95 1012.8
20260906022705 63 56 0.0 0.0 0.00 0.00 0.00 94 1012.7
20260906022205 63 56 0.0 0.0 0.00 0.00 0.00 94 1012.6
20260906021205 63 56 0.0 0.0 0.00 0.00 0.00 94 1012.6
20260906020704 63 56 0.0 0.0 0.00 0.00 0.00 94 1012.6
20260906020205 63 56 0.0 0.0 0.00 0.00 0.00 94 1012.7
20260906015204 64 56 0.0 0.0 0.00 0.00 0.00 94 1012.7
20260906014204 64 56 0.0 0.0 0.00 0.00 0.00 94 1012.8
20260906013704 64 56 0.0 0.0 0.00 0.00 0.00 94 1012.8
20260906011704 64 56 0.0 0.0 0.00 0.00 0.00 94 1012.8
20260906005205 64 56 0.0 0.0 0.00 0.00 0.00 93 1012.6
20260906004704 64 56 0.0 0.0 0.00 0.00 0.00 93 1012.6
20260906004204 64 56 0.0 0.0 0.00 0.00 0.00 93 1012.6
20260906002204 64 56 0.0 0.0 0.00 0.00 0.00 92 1012.3
20260906001705 64 56 0.0 0.0 0.00 0.00 0.00 92 1012.3
20260906001205 64 56 0.0 0.0 0.00 0.00 0.00 92 1012.3
20260905235705 65 56 0.0 0.0 0.00 0.00 0.00 92 1012.2
20260905235205 65 56 0.0 0.0 0.00 0.00 0.00 91 1012.2
20260905232704 65 56 0.0 0.0 0.00 0.00 0.00 91 1012.0
20260905232204 65 56 0.0 0.0 0.00 0.00 0.00 91 1012.0
20260905231705 65 56 0.0 0.0 0.00 0.00 0.00 91 1011.9
20260905230704 65 56 0.0 0.0 0.00 0.00 0.00 90 1011.9
20260905230205 65 56 0.0 0.0 0.00 0.00 0.00 90 1011.9
20260905224705 66 56 0.0 0.0 0.00 0.00 0.00 90 1011.7
20260905223704 66 56 0.0 0.0 0.00 0.00 0.00 90 1011.7
20260905220705 66 53 0.0 0.0 0.00 0.00 0.00 89 1011.6
20260905215706 66 53 0.9 2.6 0.00 0.00 0.00 87 1011.4
20260905214204 66 83 0.0 0.9 0.00 0.00 0.00 88 1011.1
20260905211705 66 35 0.0 1.7 0.00 0.00 0.00 89 1010.8
20260905211205 66 51 0.9 4.3 0.00 0.00 0.00 88 1010.8
20260905210705 66 17 0.0 0.0 0.00 0.00 0.00 89 1010.7
20260905210205 66 17 0.9 1.7 0.00 0.00 0.00 88 1010.7
20260905205205 67 70 0.9 2.6 0.00 0.00 0.00 87 1010.7
20260905204205 67 230 0.0 1.7 0.00 0.00 0.00 86 1010.7
20260905203705 68 45 0.9 7.0 0.00 0.00 0.00 84 1010.7
20260905202204 69 119 0.9 2.6 0.00 0.00 0.00 80 1010.8
20260905200704 72 45 1.7 10.4 0.00 0.00 0.00 77 1010.3
20260905195707 73 340 0.9 1.7 0.00 0.00 0.00 80 1009.9
20260905193204 73 59 0.0 0.9 0.00 0.00 0.00 77 1009.8
20260905192705 73 56 1.7 4.3 0.00 0.00 0.00 74 1009.8
20260905192204 73 25 0.9 2.6 0.00 0.00 0.00 74 1009.8
20260905191205 73 65 0.9 2.6 0.00 0.00 0.00 78 1009.7
20260905184204 72 67 0.0 0.0 0.00 0.00 0.00 79 1009.8
20260905182704 72 130 0.9 1.7 0.00 0.00 0.00 76 1009.8
20260905181205 72 110 0.9 6.1 0.00 0.00 0.00 75 1009.8
20260905180205 72 69 0.9 1.7 0.00 0.00 0.00 75 1009.9
20260905175204 72 227 0.9 2.6 0.00 0.00 0.00 75 1009.9
20260905174704 72 209 0.0 2.6 0.00 0.00 0.00 75 1009.8
20260905171704 73 52 0.0 4.3 0.00 0.00 0.00 76 1009.6
20260905170705 73 264 0.0 1.7 0.00 0.00 0.00 74 1009.5
20260905170204 73 338 0.9 2.6 0.00 0.00 0.00 73 1009.6
20260905165204 73 22 0.9 4.3 0.00 0.00 0.00 76 1009.6
20260905164204 72 245 0.9 4.3 0.00 0.00 0.00 75 1009.5
20260905163704 72 43 0.9 2.6 0.00 0.00 0.00 77 1009.6
20260905162704 72 74 0.9 6.1 0.00 0.00 0.00 76 1009.6
20260905162205 71 251 0.9 1.7 0.00 0.00 0.00 78 1009.7
20260905161204 71 80 0.0 1.7 0.00 0.00 0.00 80 1009.8
20260905154705 71 62 0.9 1.7 0.00 0.00 0.00 79 1009.8
20260905153704 71 39 0.0 2.6 0.00 0.00 0.00 81 1009.8
20260905152704 70 84 0.9 4.3 0.00 0.00 0.00 82 1009.9
20260905152205 70 151 0.0 1.7 0.00 0.00 0.00 82 1009.9
20260905151204 70 64 0.0 1.7 0.00 0.00 0.00 85 1009.8
20260905144704 69 84 0.0 0.9 0.00 0.00 0.00 85 1010.0
20260905143205 69 84 0.0 0.0 0.00 0.00 0.00 84 1010.0
20260905142204 69 84 0.9 1.7 0.00 0.00 0.00 85 1010.0
20260905135204 68 133 0.0 1.7 0.00 0.00 0.00 89 1009.9
20260905134704 68 78 0.0 1.7 0.00 0.00 0.00 87 1009.9
20260905133204 67 54 0.0 1.7 0.00 0.00 0.00 88 1009.8
20260905132705 67 46 0.0 0.9 0.00 0.00 0.00 89 1009.7
20260905131704 66 39 0.0 0.0 0.00 0.00 0.00 91 1009.6
20260905130704 66 77 0.0 0.0 0.00 0.00 0.00 92 1009.5
20260905124704 65 267 0.0 0.0 0.00 0.00 0.00 95 1009.4
20260905124204 64 267 0.0 0.9 0.00 0.00 0.00 95 1009.4
20260905123705 64 267 0.0 1.7 0.00 0.00 0.00 95 1009.3
20260905123204 64 10 0.0 1.7 0.00 0.00 0.00 95 1009.3
20260905122704 64 65 0.0 1.7 0.00 0.00 0.00 95 1009.2
20260905121704 63 64 0.0 1.7 0.00 0.00 0.00 97 1009.0
20260905120704 62 337 0.0 0.9 0.00 0.00 0.00 98 1009.1
20260905120204 62 337 0.0 0.0 0.00 0.00 0.00 98 1009.0
20260905113704 61 81 0.0 0.0 0.00 0.00 0.00 98 1008.9
20260905113204 61 81 0.0 0.0 0.00 0.00 0.00 97 1008.9
20260905112704 61 81 0.0 0.0 0.00 0.00 0.00 97 1008.9
20260905111704 60 81 0.0 0.0 0.00 0.00 0.00 97 1008.9
20260905111204 60 81 0.0 0.0 0.00 0.00 0.00 97 1008.9
20260905105704 60 81 0.0 0.0 0.00 0.00 0.00 96 1008.7
20260905105204 60 81 0.0 0.0 0.00 0.00 0.00 96 1008.7
20260905103204 59 81 0.0 0.0 0.00 0.00 0.00 96 1008.7
20260905102704 59 80 0.0 0.0 0.00 0.00 0.00 96 1008.6
20260905102204 59 81 0.0 0.0 0.00 0.00 0.00 96 1008.5
20260905101704 59 80 0.0 0.0 0.00 0.00 0.00 96 1008.5
20260905101204 59 81 0.0 0.0 0.00 0.00 0.00 96 1008.4
20260905100204 59 80 0.0 0.0 0.00 0.00 0.00 96 1008.4
20260905095704 59 81 0.0 0.0 0.00 0.00 0.00 96 1008.4
20260905095204 59 81 0.0 0.0 0.00 0.00 0.00 96 1008.3
20260905094704 59 81 0.0 0.0 0.00 0.00 0.00 96 1008.3
20260905094204 59 81 0.0 0.0 0.00 0.00 0.00 96 1008.3
20260905093704 59 81 0.0 0.0 0.00 0.00 0.00 96 1008.3
20260905091704 59 80 0.0 0.0 0.00 0.00 0.00 95 1008.2
20260905090204 59 81 0.0 0.0 0.00 0.00 0.00 95 1008.2
20260905085703 59 80 0.0 0.0 0.00 0.00 0.00 95 1008.1